Date String (YYYY-MM-DD hh:mm:ss) UTC,Instrument flags,absolute air pressure of the measurement (hPa),sample flow rate (lpm),inlet stack bypass flow (lpm),air temperature of the measurement (°C),ambient temperature measured by the external sensor (°C),aerosol sample conditioner tube jacket temperature (°C),OPC LED temperature (°C),internal box temperature (°C),relative humidity of the measurement (%),span deviation,mass concentration of particles derived from Lorenz-Mie calculation of OPC scattering (μg/m³),mass concentration of particles derived from Lorenz-Mie calculation of OPC scattering (μg/m³),mass concentration of particles derived from Lorenz-Mie calculation of OPC scattering (μg/m³)
DateTimeUTC,F1_M11,P_M11,Q1_M11,Q2_M11,T1_M11,T2_M11,T3_M11,T4_M11,T5_M11,U1_M11,ZSPAN_M11,X2_M11,X0_M11,X1_M11
2024-05-04 16:00:00,SystemResetWarning,0832.3,4.99,000.00,021.5,020.9,000.0,030.0,023.3,017.3,0000.0,0001.96,0009.47,0001.41
2024-05-04 16:01:00,SystemResetWarning,0832.3,4.99,000.00,021.5,020.9,000.0,030.0,023.2,017.5,0000.0,0001.94,0009.36,0001.40
2024-05-04 16:02:00,SystemResetWarning,0832.3,5.00,000.00,021.5,020.9,000.0,030.0,023.2,017.7,0000.0,0001.89,0008.56,0001.37
2024-05-04 16:03:00,SystemResetWarning,0832.3,4.99,000.00,021.5,020.9,000.0,030.0,023.2,018.0,0000.0,0001.81,0007.97,0001.35
2024-05-04 16:04:00,SystemResetWarning,0832.3,4.99,000.00,021.5,020.9,000.0,030.0,023.2,017.6,0000.0,0001.82,0007.01,0001.33
2024-05-04 16:05:00,SystemResetWarning,0832.3,5.00,000.00,021.5,020.9,000.0,030.0,023.2,017.3,0000.0,0001.83,0006.03,0001.33
2024-05-04 16:06:00,SystemResetWarning,0832.3,5.00,000.00,021.5,020.9,000.0,029.9,023.2,017.6,0000.0,0001.85,0005.89,0001.34
2024-05-04 16:07:00,SystemResetWarning,0832.2,5.01,000.00,021.5,020.9,000.0,029.9,023.2,017.9,0000.0,0001.81,0005.16,0001.33
2024-05-04 16:08:00,SystemResetWarning,0832.3,5.00,000.00,021.5,020.9,000.0,029.9,023.2,017.9,0000.0,0001.83,0004.78,0001.33
2024-05-04 16:09:00,SystemResetWarning,0832.2,5.01,000.00,021.5,020.9,000.0,029.9,023.3,018.2,0000.0,0001.84,0004.84,0001.31
2024-05-04 16:10:00,SystemResetWarning,0832.2,5.01,000.00,021.5,020.9,000.0,030.0,023.3,018.0,0000.0,0001.82,0004.31,0001.32
2024-05-04 16:11:00,SystemResetWarning,0832.2,5.00,000.00,021.5,020.9,000.0,029.9,023.2,017.9,0000.0,0001.80,0004.27,0001.33
2024-05-04 16:12:00,SystemResetWarning,0832.2,5.00,000.00,021.5,020.9,000.0,029.9,023.2,017.6,0000.0,0001.77,0004.03,0001.32
2024-05-04 16:13:00,SystemResetWarning,0832.2,5.00,000.00,021.5,020.9,000.0,029.9,023.2,017.2,0000.0,0001.79,0004.34,0001.34
2024-05-04 16:14:00,SystemResetWarning,0832.2,4.99,000.00,021.5,020.9,000.0,029.9,023.2,017.4,0000.0,0001.85,0005.86,0001.37
2024-05-04 16:15:00,SystemResetWarning,0832.1,5.00,000.00,021.5,020.9,000.0,029.9,023.2,017.6,0000.0,0001.85,0006.84,0001.38
2024-05-04 16:16:00,SystemResetWarning,0832.2,5.00,000.00,021.4,020.8,000.0,029.9,023.2,017.6,0000.0,0001.84,0007.47,0001.39
2024-05-04 16:17:00,SystemResetWarning,0832.2,5.01,000.00,021.4,020.8,000.0,029.9,023.2,018.0,0000.0,0001.82,0007.65,0001.37
2024-05-04 16:18:00,SystemResetWarning,0832.2,5.02,000.00,021.5,020.9,000.0,029.9,023.2,018.0,0000.0,0001.85,0007.78,0001.37
2024-05-04 16:19:00,SystemResetWarning,0832.2,4.99,000.00,021.5,020.9,000.0,029.9,023.2,018.4,0000.0,0001.87,0007.93,0001.36
2024-05-04 16:20:00,SystemResetWarning,0832.2,4.99,000.00,021.5,020.9,000.0,029.9,023.2,017.9,0000.0,0001.86,0007.75,0001.37
2024-05-04 16:21:00,SystemResetWarning,0832.1,4.99,000.00,021.5,020.9,000.0,029.9,023.2,017.4,0000.0,0001.90,0007.80,0001.38
2024-05-04 16:22:00,SystemResetWarning,0832.2,5.01,000.00,021.4,020.9,000.0,029.9,023.2,017.5,0000.0,0002.02,0007.74,0001.40
2024-05-04 16:23:00,SystemResetWarning,0832.2,5.01,000.00,021.4,020.9,000.0,029.9,023.2,017.7,0000.0,0002.09,0007.79,0001.44
2024-05-04 16:24:00,SystemResetWarning,0832.1,5.00,000.00,021.4,020.9,000.0,029.9,023.2,017.6,0000.0,0002.21,0008.26,0001.47
2024-05-04 16:25:00,SystemResetWarning,0832.1,4.99,000.00,021.4,020.8,000.0,029.8,023.1,017.7,0000.0,0002.36,0008.25,0001.47
2024-05-04 16:26:00,SystemResetWarning,0832.1,4.99,000.00,021.4,020.8,000.0,029.8,023.1,017.6,0000.0,0002.46,0008.83,0001.49
2024-05-04 16:27:00,SystemResetWarning,0832.1,5.00,000.00,021.4,020.8,000.0,029.8,023.1,017.8,0000.0,0002.50,0009.10,0001.52
2024-05-04 16:28:00,SystemResetWarning,0832.1,5.00,000.00,021.4,020.8,000.0,029.8,023.1,017.9,0000.0,0002.51,0009.04,0001.54
2024-05-04 16:29:00,SystemResetWarning,0832.0,5.01,000.00,021.4,020.8,000.0,029.8,023.1,017.7,0000.0,0002.51,0008.95,0001.57
2024-05-04 16:30:00,SystemResetWarning,0832.1,5.00,000.00,021.4,020.8,000.0,029.8,023.1,017.8,0000.0,0002.54,0008.54,0001.59
2024-05-04 16:31:00,SystemResetWarning,0832.0,5.01,000.00,021.4,020.8,000.0,029.8,023.1,017.6,0000.0,0002.62,0008.72,0001.62
2024-05-04 16:32:00,SystemResetWarning,0832.0,5.00,000.00,021.4,020.8,000.0,029.8,023.2,017.6,0000.0,0002.61,0008.75,0001.63
2024-05-04 16:33:00,SystemResetWarning,0832.0,5.00,000.00,021.4,020.8,000.0,029.8,023.1,017.8,0000.0,0002.52,0008.69,0001.63
2024-05-04 16:34:00,SystemResetWarning,0832.0,5.00,000.00,021.4,020.8,000.0,029.8,023.1,017.6,0000.0,0002.53,0009.09,0001.63
2024-05-04 16:35:00,SystemResetWarning,0832.0,5.00,000.00,021.4,020.8,000.0,029.8,023.1,017.6,0000.0,0002.49,0008.71,0001.63
2024-05-04 16:36:00,SystemResetWarning,0832.0,5.00,000.00,021.4,020.8,000.0,029.8,023.1,017.7,0000.0,0002.34,0008.00,0001.63
2024-05-04 16:37:00,SystemResetWarning,0832.0,5.00,000.00,021.4,020.8,000.0,029.8,023.1,017.5,0000.0,0002.30,0006.70,0001.64
2024-05-04 16:38:00,SystemResetWarning,0832.0,5.00,000.00,021.4,020.8,000.0,029.8,023.1,017.9,0000.0,0002.32,0005.59,0001.66
2024-05-04 16:39:00,SystemResetWarning,0831.9,5.00,000.00,021.4,020.8,000.0,029.8,023.1,017.9,0000.0,0002.39,0005.75,0001.70
2024-05-04 16:40:00,SystemResetWarning,0831.9,5.01,000.00,021.4,020.8,000.0,029.8,023.1,017.9,0000.0,0002.42,0005.85,0001.72
2024-05-04 16:41:00,SystemResetWarning,0831.9,5.00,000.00,021.4,020.9,000.0,029.8,023.1,018.0,0000.0,0002.45,0006.28,0001.74
2024-05-04 16:42:00,SystemResetWarning,0831.9,5.00,000.00,021.4,020.8,000.0,029.8,023.1,018.0,0000.0,0002.44,0006.36,0001.75
2024-05-04 16:43:00,SystemResetWarning,0831.9,5.00,000.00,021.4,020.8,000.0,029.8,023.1,017.5,0000.0,0002.52,0007.24,0001.77
2024-05-04 16:44:00,SystemResetWarning,0831.9,5.00,000.00,021.4,020.8,000.0,029.8,023.1,017.1,0000.0,0002.58,0007.21,0001.80
2024-05-04 16:45:00,SystemResetWarning,0831.9,4.99,000.00,021.4,020.8,000.0,029.8,023.1,017.6,0000.0,0002.62,0007.72,0001.82
2024-05-04 16:46:00,SystemResetWarning,0831.8,4.99,000.00,021.4,020.8,000.0,029.8,023.1,017.2,0000.0,0002.66,0007.68,0001.82
2024-05-04 16:47:00,SystemResetWarning,0831.8,5.00,000.00,021.4,020.8,000.0,029.8,023.1,017.1,0000.0,0002.73,0008.11,0001.86
2024-05-04 16:48:00,SystemResetWarning,0831.9,5.01,000.00,021.4,020.9,000.0,029.8,023.1,017.1,0000.0,0002.75,0008.61,0001.87
2024-05-04 16:49:00,SystemResetWarning,0831.9,5.00,000.00,021.4,020.9,000.0,029.8,023.2,017.3,0000.0,0002.77,0008.85,0001.87
2024-05-04 16:50:00,SystemResetWarning,0832.1,5.01,000.00,021.4,020.9,000.0,029.8,023.2,017.7,0000.0,0002.79,0008.72,0001.87
2024-05-04 16:51:00,SystemResetWarning,0832.1,5.00,000.00,021.4,020.9,000.0,029.8,023.2,017.6,0000.0,0002.78,0008.70,0001.87
2024-05-04 16:52:00,SystemResetWarning,0832.1,4.99,000.00,021.4,020.9,000.0,029.8,023.1,017.2,0000.0,0002.81,0008.65,0001.86
2024-05-04 16:53:00,SystemResetWarning,0831.9,4.99,000.00,021.4,020.8,000.0,029.8,023.1,017.7,0000.0,0002.84,0008.48,0001.87
2024-05-04 16:54:00,SystemResetWarning,0831.7,5.00,000.00,021.4,020.8,000.0,029.8,023.1,017.4,0000.0,0002.83,0008.45,0001.87
2024-05-04 16:55:00,SystemResetWarning,0831.7,5.01,000.00,021.4,020.9,000.0,029.8,023.1,017.0,0000.0,0002.83,0008.87,0001.87
2024-05-04 16:56:00,SystemResetWarning,0831.7,5.00,000.00,021.4,020.9,000.0,029.8,023.1,017.3,0000.0,0002.83,0008.52,0001.87
2024-05-04 16:57:00,SystemResetWarning,0831.7,4.99,000.00,021.4,020.9,000.0,029.8,023.1,017.4,0000.0,0002.76,0008.50,0001.88
2024-05-04 16:58:00,SystemResetWarning,0831.7,4.99,000.00,021.4,020.9,000.0,029.8,023.1,017.4,0000.0,0002.71,0008.01,0001.89
2024-05-04 16:59:00,SystemResetWarning,0831.7,5.00,000.00,021.4,020.8,000.0,029.8,023.1,017.7,0000.0,0002.69,0007.47,0001.92
